Flag for U.S.A. Weather past 2 weeks in Pontiac, Michigan, U.S.A.

Now
80 °F

Broken clouds.


Feels Like: 80 °F
Forecast: 60 / 81 °F
Wind: 7 mph from West

Location: Oakland County International Airport

Current Time: Aug 1, 2014 at 6:37:38 PM

Latest Report: Aug 1, 2014 at 5:53 PM


Visibility: 10 mi

Pressure: 30.06 "Hg

Humidity: 42%

Dew point: 55 °F

Location of PontiacLocation

Historic Weather in Pontiac — Graph

°F

Pontiac temperature yesterday

Maximum temperature yesterday: 77 °F (at 4:53 PM)
Minimum temperature yesterday: 54 °F (at 5:53 AM)
Average temperature yesterday: 66 °F

Past Weeks' High & Low Weather Summary

 TemperatureHumidityPressure
High86 °F (Jul 21, 4:53 PM)96% (Jul 20, 6:53 AM)30.23 "Hg (Jul 20, 6:53 AM)
Low52 °F (Jul 28, 11:53 PM)36% (Jul 21, 4:53 PM)29.59 "Hg (Jul 27, 3:53 PM)
Average68 °F67%30.00 "Hg
* Reported Jul 17 4:53 PM — Aug 1 4:53 PM, Pontiac, Weather by CustomWeather, © 2014

Note: Actual official high and low records may vary slightly from our data, if they occured in-between our weather recording intervals... More about our weather records

Advertising

Pontiac weather history for previous 24 hours

 ConditionsComfort  
Time TempWeatherWind HumidityBarometerVisibility
4:53 PM
Aug 1
82 °FBroken clouds.3 mph40%30.05 "Hg10 mi
3:53 PM80 °FBroken clouds.3 mph42%30.06 "Hg10 mi
2:53 PM80 °FBroken clouds.8 mph44%30.06 "Hg10 mi
1:53 PM79 °FBroken clouds.12 mph45%30.08 "Hg10 mi
12:53 PM79 °FBroken clouds.10 mph48%30.08 "Hg10 mi
11:53 AM78 °FPassing clouds.10 mph52%30.09 "Hg10 mi
10:53 AM75 °FSunny.6 mph60%30.08 "Hg10 mi
9:53 AM70 °FSunny.3 mph73%30.09 "Hg10 mi
8:53 AM66 °FSunny.6 mph81%30.09 "Hg8 mi
7:53 AM63 °FPassing clouds.No wind87%30.07 "Hg7 mi
6:53 AM60 °FFog.No wind90%30.06 "Hg6 mi
5:53 AM62 °FPassing clouds.3 mph83%30.04 "Hg9 mi
4:53 AM62 °FClear.3 mph86%30.04 "Hg9 mi
3:53 AM61 °FClear.No wind87%30.03 "Hg9 mi
2:53 AM62 °FClear.No wind83%30.04 "Hg9 mi
1:53 AM63 °FClear.No wind84%30.04 "Hg9 mi
12:53 AM64 °FClear.No wind81%30.04 "Hg10 mi
11:53 PM
Jul 31
65 °FPassing clouds.3 mph81%30.04 "Hg10 mi
10:53 PM68 °FClear.No wind73%30.03 "Hg10 mi
9:53 PM70 °FSunny.5 mph68%30.02 "Hg10 mi
8:53 PM72 °FPassing clouds.3 mph61%30.01 "Hg10 mi
7:53 PM75 °FPassing clouds.6 mph58%30.00 "Hg10 mi
6:53 PM76 °FPassing clouds.10 mph54%29.99 "Hg10 mi
Weather by CustomWeather, © 2014

See weather overviewHow to use our weather pages